GW1127 Weather Reports


time (UTC)temp
C
wind
direction
speed
KPH
gust
KPH
rain 1hr
cm
rain 24hr
cm
rain mn
cm
humidity
%
barometer
mb
20260505213958 26 348 1.6 6.4 0.00 0.00 0.00 41 1009.3
20260505212918 26 116 1.6 3.2 0.00 0.00 0.00 40 1009.3
20260505211919 26 142 6.4 11.3 0.00 0.00 0.00 40 1009.3
20260505210919 26 295 6.4 20.9 0.00 0.00 0.00 41 1009.4
20260505205918 26 160 1.6 4.8 0.00 0.00 0.00 41 1009.4
20260505204916 26 118 6.4 12.9 0.00 0.00 0.00 41 1009.5
20260505203940 26 133 3.2 8.0 0.00 0.00 0.00 42 1009.6
20260505202940 26 352 1.6 4.8 0.00 0.00 0.00 41 1009.6
20260505201920 27 317 3.2 8.0 0.00 0.00 0.00 40 1009.7
20260505200917 26 130 4.8 11.3 0.00 0.00 0.00 40 1009.8
20260505195937 26 349 3.2 4.8 0.00 0.00 0.00 41 1009.8
20260505194917 26 129 3.2 8.0 0.00 0.00 0.00 42 1010.0
20260505193917 26 146 3.2 6.4 0.00 0.00 0.00 42 1010.2
20260505192958 26 133 3.2 6.4 0.00 0.00 0.00 41 1010.5
20260505191918 26 148 8.0 12.9 0.00 0.00 0.00 42 1010.6
20260505190918 26 144 4.8 9.7 0.00 0.00 0.00 41 1010.8
20260505185918 26 130 6.4 9.7 0.00 0.00 0.00 41 1010.9
20260505184919 26 272 4.8 9.7 0.00 0.00 0.00 41 1011.0
20260505183918 26 5 4.8 9.7 0.00 0.00 0.00 41 1011.2
20260505182936 26 115 3.2 8.0 0.00 0.00 0.00 40 1011.4
20260505181919 26 127 3.2 6.4 0.00 0.00 0.00 41 1011.5
20260505180919 26 110 1.6 4.8 0.00 0.00 0.00 42 1011.6
20260505175920 26 172 3.2 6.4 0.00 0.00 0.00 41 1011.6
20260505174920 26 140 1.6 3.2 0.00 0.00 0.00 42 1011.6
20260505173958 26 147 3.2 8.0 0.00 0.00 0.00 44 1011.7
20260505172917 26 170 3.2 9.7 0.00 0.00 0.00 42 1011.7
20260505171917 25 303 3.2 6.4 0.00 0.00 0.00 43 1011.8
20260505170917 25 310 4.8 9.7 0.00 0.00 0.00 43 1011.9
20260505165920 25 304 1.6 4.8 0.00 0.00 0.00 44 1012.0
20260505164919 25 298 4.8 9.7 0.00 0.00 0.00 46 1012.1
20260505163920 25 141 1.6 4.8 0.00 0.00 0.00 45 1012.1
20260505162941 25 295 3.2 8.0 0.00 0.00 0.00 48 1012.3
20260505161919 24 128 3.2 6.4 0.00 0.00 0.00 48 1012.3
20260505160958 24 245 1.6 4.8 0.00 0.00 0.00 47 1012.5
20260505152919 22 143 3.2 6.4 0.00 0.00 0.00 52 1012.8
20260505151919 22 41 0.0 1.6 0.00 0.00 0.00 54 1012.8
20260505150920 22 33 1.6 3.2 0.00 0.00 0.00 56 1012.9
20260505124918 17 30 3.2 4.8 0.00 0.00 0.00 70 1013.0
20260505123922 16 64 0.0 1.6 0.00 0.00 0.00 71 1013.0
20260505122923 16 327 3.2 4.8 0.00 0.00 0.00 72 1013.0
20260505121923 16 357 1.6 4.8 0.00 0.00 0.00 73 1013.0
20260505120923 15 126 1.6 3.2 0.00 0.00 0.00 73 1012.9
20260505115940 15 113 1.6 4.8 0.00 0.00 0.00 74 1012.8
20260505114941 15 294 0.0 0.0 0.00 0.00 0.00 75 1012.6
20260505113917 15 351 1.6 6.4 0.00 0.00 0.00 75 1012.7
20260505112937 14 0.0 0.0 0.00 0.00 0.00 77 1012.7
20260505111917 13 145 1.6 3.2 0.00 0.00 0.00 78 1012.6
20260505110938 13 0.0 0.0 0.00 0.00 0.00 79 1012.3
20260505101919 13 0.0 0.0 0.00 0.00 0.00 78 1011.8
20260505100919 13 0.0 0.0 0.00 0.00 0.00 78 1011.7
20260505095919 13 145 0.0 1.6 0.00 0.00 0.00 78 1011.7
20260505094916 13 0.0 0.0 0.00 0.00 0.00 78 1011.6
20260505093919 13 0.0 0.0 0.00 0.00 0.00 78 1011.4
20260505092919 13 0.0 0.0 0.00 0.00 0.00 77 1011.4
20260505091920 13 170 0.0 1.6 0.00 0.00 0.00 77 1011.3
20260505090937 13 191 0.0 0.0 0.00 0.00 0.00 76 1011.3
20260505085937 13 0.0 0.0 0.00 0.00 0.00 76 1011.2
20260505084917 13 199 0.0 3.2 0.00 0.00 0.00 75 1011.2
20260505083917 14 255 0.0 1.6 0.00 0.00 0.00 74 1011.0
20260505082921 14 0.0 0.0 0.00 0.00 0.00 73 1011.0
20260505081918 15 169 0.0 1.6 0.00 0.00 0.00 72 1011.0
20260505080958 15 0.0 0.0 0.00 0.00 0.00 72 1011.0
20260505075918 15 174 0.0 1.6 0.00 0.00 0.00 71 1011.0
20260505074918 15 0.0 0.0 0.00 0.00 0.00 71 1010.9
20260505073919 15 155 1.6 3.2 0.00 0.00 0.00 71 1010.8
20260505072918 15 178 0.0 1.6 0.00 0.00 0.00 70 1010.9
20260505071918 15 129 1.6 3.2 0.00 0.00 0.00 70 1010.8
20260505070939 16 202 0.0 3.2 0.00 0.00 0.00 69 1010.7
20260505065919 16 176 0.0 3.2 0.00 0.00 0.00 69 1010.7
20260505064919 16 141 1.6 4.8 0.00 0.00 0.00 69 1010.7
20260505063917 16 156 0.0 1.6 0.00 0.00 0.00 68 1010.7
20260505062916 16 136 3.2 8.0 0.00 0.00 0.00 68 1010.6
20260505061916 16 128 0.0 1.6 0.00 0.00 0.00 68 1010.6
20260505060920 16 147 3.2 4.8 0.00 0.00 0.00 67 1010.7
20260505055940 16 5 1.6 3.2 0.00 0.00 0.00 67 1010.7
20260505054917 16 150 1.6 8.0 0.00 0.00 0.00 67 1010.7
20260505053917 17 131 1.6 4.8 0.00 0.00 0.00 66 1010.7
20260505052917 17 26 0.0 3.2 0.00 0.00 0.00 66 1010.7
20260505051918 17 122 1.6 3.2 0.00 0.00 0.00 65 1010.8
20260505050918 17 358 1.6 3.2 0.00 0.00 0.00 65 1010.8
20260505040916 18 154 4.8 6.4 0.00 0.00 0.00 63 1010.6
20260505035916 18 286 1.6 4.8 0.00 0.00 0.00 63 1010.7
20260505034920 18 228 0.0 4.8 0.00 0.00 0.00 62 1010.6
20260505033919 18 159 3.2 6.4 0.00 0.00 0.00 62 1010.6
20260505032920 18 245 0.0 1.6 0.00 0.00 0.00 61 1010.6
20260505031937 19 133 1.6 6.4 0.00 0.00 0.00 61 1010.6
20260505030917 19 353 1.6 3.2 0.00 0.00 0.00 60 1010.7
20260505025920 19 103 1.6 4.8 0.00 0.00 0.00 60 1010.6
20260505024920 19 131 3.2 6.4 0.00 0.00 0.00 59 1010.6
20260505023938 20 135 1.6 4.8 0.00 0.00 0.00 57 1010.5
20260505022918 20 352 3.2 9.7 0.00 0.00 0.00 55 1010.3
20260505021938 20 172 1.6 4.8 0.00 0.00 0.00 52 1010.2
20260505020918 20 146 3.2 4.8 0.00 0.00 0.00 47 1010.1
20260505015918 20 0.0 0.0 0.00 0.00 0.00 45 1010.0
20260505014919 20 114 0.0 1.6 0.00 0.00 0.00 45 1009.8
20260505013918 21 120 0.0 3.2 0.00 0.00 0.00 44 1009.7
20260505012939 21 253 0.0 1.6 0.00 0.00 0.00 43 1009.6
20260505011919 21 157 0.0 3.2 0.00 0.00 0.00 44 1009.5
20260505010919 21 191 1.6 4.8 0.00 0.00 0.00 43 1009.4
20260505005916 21 24 0.0 0.0 0.00 0.00 0.00 43 1009.2
20260505004936 21 330 0.0 1.6 0.00 0.00 0.00 43 1009.0
20260505003920 21 204 0.0 1.6 0.00 0.00 0.00 42 1008.9
20260505002921 22 167 0.0 1.6 0.00 0.00 0.00 41 1008.8
20260505001917 22 192 1.6 3.2 0.00 0.00 0.00 39 1008.7
20260505000938 22 156 0.0 3.2 0.00 0.00 0.00 38 1008.6
20260504235917 23 347 1.6 3.2 0.00 0.00 0.00 37 1008.6
20260504234917 24 169 0.0 0.0 0.00 0.00 0.00 33 1008.4
20260504233919 25 141 1.6 3.2 0.00 0.00 0.00 32 1008.4
20260504232918 25 0.0 0.0 0.00 0.00 0.00 31 1008.4
20260504231918 26 223 1.6 3.2 0.00 0.00 0.00 30 1008.3
20260504230918 26 48 1.6 4.8 0.00 0.00 0.00 30 1008.3
20260504225958 26 207 1.6 3.2 0.00 0.00 0.00 30 1008.4
20260504224919 26 135 4.8 4.8 0.00 0.00 0.00 30 1008.5
20260504223917 26 181 1.6 4.8 0.00 0.00 0.00 30 1008.5
20260504222916 26 139 0.0 1.6 0.00 0.00 0.00 31 1008.5
20260504221919 26 5 3.2 9.7 0.00 0.00 0.00 32 1008.5
20260504220919 26 141 3.2 6.4 0.00 0.00 0.00 32 1008.5
20260504215920 26 155 1.6 4.8 0.00 0.00 0.00 31 1008.5
20260504214937 26 137 3.2 6.4 0.00 0.00 0.00 32 1008.6